TimeCST,TemperatureF,Dew PointF,Humidity,Sea Level PressureIn,VisibilityMPH,Wind Direction,Wind SpeedMPH,Gust SpeedMPH,PrecipitationIn,Events,Conditions,WindDirDegrees,DateUTC
12:52 AM,28.9,25.0,85,29.96,8.0,Calm,Calm,-,N/A,,Clear,0,2013-02-13 06:52:00
1:52 AM,28.9,28.0,96,29.94,6.0,Calm,Calm,-,N/A,,Clear,0,2013-02-13 07:52:00
2:52 AM,28.9,27.0,92,29.92,7.0,Calm,Calm,-,N/A,,Clear,0,2013-02-13 08:52:00
3:52 AM,30.0,27.0,88,29.89,8.0,Calm,Calm,-,N/A,,Clear,0,2013-02-13 09:52:00
4:52 AM,30.0,28.0,92,29.88,8.0,Calm,Calm,-,N/A,,Clear,0,2013-02-13 10:52:00
5:52 AM,30.0,27.0,88,29.88,8.0,South,4.6,-,N/A,,Clear,190,2013-02-13 11:52:00
6:52 AM,28.9,26.1,89,29.87,8.0,SSW,5.8,-,N/A,,Clear,200,2013-02-13 12:52:00
7:52 AM,30.9,27.0,85,29.88,10.0,SW,4.6,-,N/A,,Clear,220,2013-02-13 13:52:00
8:52 AM,36.0,28.0,73,29.87,10.0,SW,5.8,-,N/A,,Clear,220,2013-02-13 14:52:00
9:52 AM,39.0,28.0,65,29.87,10.0,WSW,8.1,-,N/A,,Clear,240,2013-02-13 15:52:00
10:52 AM,44.1,30.0,58,29.86,10.0,SSW,9.2,-,N/A,,Clear,200,2013-02-13 16:52:00
11:52 AM,46.0,33.1,61,29.84,10.0,West,12.7,-,N/A,,Clear,260,2013-02-13 17:52:00
12:52 PM,48.0,32.0,54,29.82,10.0,WSW,13.8,19.6,N/A,,Clear,250,2013-02-13 18:52:00
1:52 PM,48.9,30.9,50,29.80,10.0,West,16.1,-,N/A,,Clear,270,2013-02-13 19:52:00
2:52 PM,50.0,28.0,43,29.80,10.0,West,17.3,-,N/A,,Clear,270,2013-02-13 20:52:00
3:52 PM,48.9,28.9,46,29.81,10.0,West,17.3,-,N/A,,Clear,270,2013-02-13 21:52:00
4:52 PM,46.9,30.0,52,29.81,10.0,West,10.4,-,N/A,,Clear,270,2013-02-13 22:52:00
5:52 PM,42.1,30.0,62,29.82,10.0,West,9.2,-,N/A,,Clear,270,2013-02-13 23:52:00
6:52 PM,39.0,30.9,73,29.84,10.0,WSW,5.8,-,N/A,,Clear,250,2013-02-14 00:52:00
7:52 PM,36.0,30.0,79,29.84,10.0,WSW,5.8,-,N/A,,Clear,240,2013-02-14 01:52:00
8:52 PM,35.1,30.0,82,29.84,10.0,SW,4.6,-,N/A,,Clear,230,2013-02-14 02:52:00
9:52 PM,36.0,28.9,76,29.83,10.0,SSW,6.9,-,N/A,,Clear,200,2013-02-14 03:52:00
10:52 PM,34.0,28.0,79,29.83,10.0,SSW,6.9,-,N/A,,Clear,200,2013-02-14 04:52:00
11:52 PM,36.0,30.0,79,29.82,10.0,SSW,10.4,-,N/A,,Clear,200,2013-02-14 05:52:00